Regional Weather Roundup
Issued by NWS

Home | Current Version | Previous Version | Graphics & Text | Print | Product List | Glossary On
Versions: 1 2 3 4 5 6 7 8 9 10 11 12 13 14 15 16 17 18 19 20 21 22 23 24 25 26 27 28 29 30 31 32 33 34 35 36 37 38 39 40 41 42 43 44 45 46 47 48 49 50
000
ASUS45 KBOU 100207
RWRCO

WEATHER ROUNDUP FOR COLORADO
NATIONAL WEATHER SERVICE DENVER/BOULDER CO
700 PM MST TUE FEB 09 2016

NOTE: "FAIR" INDICATES FEW OR NO CLOUDS BELOW 12000 FEET WITH NO
SIGNIFICANT WEATHER AND/OR OBSTRUCTIONS TO VISIBILITY.

COZ001>005-013-030-031-100300-
...NORTHWEST COLORADO...

CITY           SKY/WX    TMP DP  RH WIND       PRES   REMARKS
CRAIG          CLOUDY     9   6  88 CALM      30.48R
HAYDEN         CLOUDY    23  14  68 CALM      30.47S
MEEKER         CLOUDY    18  13  80 NE6       30.46R WCI  10
MOUNT WERNER   NOT AVBL
STEAMBOAT SPGS CLOUDY    21  17  82 CALM      30.48S
WALDEN         CLOUDY    14  10  85 SE6       30.46R WCI   5
$$

COZ006>008-011-100300-
...WEST CENTRAL VALLEYS...

CITY           SKY/WX    TMP DP  RH WIND       PRES   REMARKS
GRAND JUNCTION CLOUDY    29  25  85 E3        30.45R
MONTROSE       CLOUDY    31  24  75 SE7       30.48R WCI  24
EAGLE          CLEAR     27  19  74 CALM      30.52R
RIFLE          CLOUDY    28  19  69 SE5       30.47R WCI  23
DELTA          CLOUDY    34  27  75 N3        30.47S
NUCLA          CLOUDY    39  27  60 SE7       30.47S
$$

COZ017>023-064>068-100300-
...SOUTHWEST COLORADO...

CITY           SKY/WX    TMP DP  RH WIND       PRES   REMARKS
DURANGO        CLOUDY    34  20  56 CALM      30.40R
CORTEZ         CLOUDY    37  23  56 E5        30.39R
PAGOSA SPRINGS CLOUDY    33  20  57 W3        30.42S
TELLURIDE      CLOUDY    34  17  51 CALM      30.51R
WOLF CREEK PAS CLOUDY    28  -4  24 NE14      30.57R WCI  17
$$

COZ009-010-012-014-032>034-037-058>063-100300-
...CENTRAL COLORADO...

CITY           SKY/WX    TMP DP  RH WIND       PRES   REMARKS
ASPEN          CLOUDY    26  16  65 S7        30.47S WCI  18
BUENA VISTA    CLOUDY    42   6  23 NW18      30.38S
COPPER MTN     CLOUDY    30  -2  24 W20       30.53S WCI  18
BERTHOUD PASS  FAIR      18   7  62 NW15      30.52R WCI   3
COTTONWOOD PAS CLOUDY    39  -6  14 CALM      30.47R
GUNNISON       CLOUDY    10  -2  56 NE3       30.54S
KREMMLING      CLOUDY    10   7  85 CALM      30.52S
LEADVILLE      CLOUDY    25   3  38 NE8       30.48R WCI  16
MONARCH PASS   CLOUDY    28   1  31 W9        30.64S WCI  20
SALIDA         NOT AVBL
SUNLIGHT       CLOUDY    30  18  59 NW6         N/A  WCI  24
WILKERSON PASS CLOUDY    30  -2  24 N9G17     30.51R WCI  22
$$

COZ069>075-100300-
...SAN LUIS VALLEY/SANGRE DE CRISTO MOUNTAINS...

CITY           SKY/WX    TMP DP  RH WIND       PRES   REMARKS
ALAMOSA        CLOUDY    32  22  66 N6        30.42R WCI  26
LA VETA PASS   CLOUDY    30  14  51 MISG      30.46S
SAGUACHE       CLOUDY    27  21  80 CALM      30.43S
$$

COZ035-036-038>040-100300-
...NORTHERN COLORADO FRONT RANGE...

CITY           SKY/WX    TMP DP  RH WIND       PRES   REMARKS
DENVER INTL AP CLEAR     40  23  50 SW12      30.28S
DMNS CITY PARK   N/A     46  18  33 SE7       30.28F
AURORA         NOT AVBL
FRONT RANGE AP PTCLDY    34  25  69 MISG      30.29S
ERIE MUNI ARPT CLEAR     37  25  64 SW5       30.27F
BOULDER MUN AP CLEAR     43  23  45 SW6       30.27F
CENTENNIAL     CLEAR     39  21  48 S7        30.30S
BROOMFIELD     CLEAR     45  19  36 SW6       30.30S
FORT COLLINS   CLEAR     41  25  52 SW8       30.27F
LONGMONT       CLEAR     37  26  65 W5        30.30S
$$

COZ041-046-047-076>085-087-088-100300-
...PIKES PEAK/PALMER DIVIDE AND SOUTHERN FOOTHILLS...

CITY           SKY/WX    TMP DP  RH WIND       PRES   REMARKS
COLO. SPRINGS  CLOUDY    36  21  54 E3        30.35S
A. F. ACADEMY  CLOUDY    33  20  59 N6        30.34S WCI  27
SCHRIEVER AFB  FAIR      34  22  61 N2        30.35S
ELLICOTT       NOT AVBL
FALCON         NOT AVBL
FORT CARSON    CLEAR     41  20  43 SW3       30.32S
LIMON          CLEAR     34  24  67 W10       30.29F WCI  26
MONUMENT HILL  CLOUDY    28  16  59 SW10      30.35F WCI  19
TRINIDAD       CLOUDY    40  16  37 S6        30.36S
$$

COZ042>045-048>051-090-091-100300-
...NORTHEAST COLORADO...

CITY           SKY/WX    TMP DP  RH WIND       PRES   REMARKS
GREELEY ARPT   CLEAR     34  27  75 N6        30.26S WCI  29
AKRON          CLEAR     39  28  64 W14       30.23R
BURLINGTON     CLEAR     37  27  67 W12       30.25R
WRAY           CLOUDY    37  32  81 W12       30.20S
STERLING       CLEAR     39  30  70 NW9       30.21S
HOLYOKE        CLOUDY    41  32  70 W12       30.19S
FORT MORGAN    CLEAR     36  27  71 W8        30.25S
$$

COZ086-089-092>099-100300-
...SOUTHEAST COLORADO...

CITY           SKY/WX    TMP DP  RH WIND       PRES   REMARKS
PUEBLO         CLEAR     40  24  53 CALM      30.31F
LA JUNTA       CLEAR     47  24  40 S5        30.31S
LAMAR          CLEAR     40  24  53 SW6       30.27F
SPRINGFIELD      N/A     34  24  67 W10       30.32R WCI  26
$$



USA.gov is the U.S. government's official web portal to all federal, state and local government web resources and services.